Tracking 28794 objects as of 19-Apr-2024
HD Live streaming from Space Station
objects crossing your sky now

FALCON 9 R/B

Track FALCON 9 R/B now!
10-day predictions


NORAD ID: 56369
Int'l Code: 2023-059C
Perigee: 2,771.0 km
Apogee: 7,005.0 km
Inclination: 8.6 °
Period: 198.2 minutes
Semi major axis: 11259 km
RCS: Unknown
Launch date: April 28, 2023
Source: United States (US)
Launch site: AIR FORCE EASTERN TEST RANGE (AFETR)

Note: This is a ROCKET BODY
Your satellite tracking list
Your tracking list is empty




NASA's NSSDC Master Catalog

Two Line Element Set (TLE):
1 56369U 23059C   24110.57627849  .00000023  00000-0 -11928-1 0  9992
2 56369   8.5692 224.9304 1880302 118.7748 261.3950  7.26696069 25940
Source of the keplerian elements: AFSPC